Home   Weather   Shymkent   Past weeks

Flag for Kazakhstan Past Weather in Shymkent, Kazakhstan — Yesterday and Last 2 Weeks

Now
43 °F

Sprinkles. Overcast.


Feels Like: 39 °F
Forecast: 37 / 44 °F
Wind: 6 mph from Southwest

Location: Shymkent Airport

Current Time: Feb 25, 2017 at 4:02:26 am

Latest Report: Feb 25, 2017 at 3:00 am


Visibility: N/A

Pressure: 30.15 "Hg (28.34 "Hg at 506m altitude)

Humidity: 76%

Dew Point: 36 °F

Location of ShymkentLocation

Past Weather in Shymkent — Graph

°F

Shymkent Temperature Yesterday

Maximum temperature yesterday: 55 °F (at 12:00 pm)
Minimum temperature yesterday: 32 °F (at 6:00 am)
Average temperature yesterday: 42 °F

High & Low Weather Summary for the Past Weeks

 TemperatureHumidityPressure
High55 °F (Feb 24, 12:00 pm)100% (Feb 10, 3:30 am)30.72 "Hg (Feb 10, 3:30 am)
Low10 °F (Feb 20, 4:00 am)19% (Feb 22, 5:30 pm)29.80 "Hg (Feb 16, 5:30 pm)
Average29 °F85%30.25 "Hg
* Reported Feb 10 2:00 am — Feb 25 2:30 am, Shymkent, Weather by CustomWeather, © 2017

Note: Actual official high and low records may vary slightly from our data, if they occured in-between our weather recording intervals... More about our weather records

Advertising

Shymkent Weather History for the Previous 24 Hours

Scroll right to see more
 ConditionsComfort  
Time TempWeatherWind HumidityBarometerVisibility
2:30 am
Sat, Feb 25
43 °FSprinkles. Overcast.6 mph76%30.15 "HgN/A
2:00 am43 °FSprinkles. Overcast.6 mph76%30.18 "HgN/A
1:30 am43 °FSprinkles. Overcast.6 mph76%30.18 "HgN/A
1:00 am43 °FSprinkles. Overcast.6 mph76%30.18 "HgN/A
12:30 am45 °FSprinkles. Overcast.6 mph71%30.18 "HgN/A
12:00 am45 °FMostly cloudy.13 mph66%30.18 "HgN/A
11:30 pm
Fri, Feb 24
41 °FMostly cloudy.6 mph66%30.18 "HgN/A
11:00 pm41 °FMostly cloudy.3 mph66%30.15 "HgN/A
10:30 pm41 °FMostly cloudy.3 mph61%30.15 "HgN/A
10:00 pm41 °FMostly cloudy.6 mph66%30.15 "HgN/A
9:30 pm39 °FMostly cloudy.3 mph75%30.15 "HgN/A
9:00 pm39 °FMostly cloudy.1 mph81%30.12 "HgN/A
8:30 pm39 °FMostly cloudy.1 mph75%30.12 "HgN/A
8:00 pm41 °FMostly cloudy.3 mph70%30.09 "HgN/A
7:30 pm41 °FMostly cloudy.3 mph76%30.09 "HgN/A
7:00 pm41 °FMore clouds than sun.1 mph81%30.09 "HgN/A
6:30 pm43 °FMore clouds than sun.6 mph71%30.07 "Hg5 mi
6:00 pm48 °FClear.1 mph71%30.07 "Hg4 mi
5:30 pm50 °FClear.3 mph71%30.07 "Hg5 mi
5:00 pm50 °FClear.3 mph62%30.04 "Hg4 mi
4:30 pm52 °FClear.6 mph58%30.04 "Hg5 mi
4:00 pm52 °FPassing clouds.3 mph62%30.04 "HgN/A
3:30 pm55 °FSunny.1 mph33%30.04 "Hg10 mi
3:00 pm55 °FSunny.No wind47%30.04 "Hg10 mi
2:30 pm52 °FSunny.1 mph62%30.04 "Hg10 mi
2:00 pm55 °FSunny.3 mph26%30.07 "Hg10 mi
1:30 pm55 °FSunny.1 mph26%30.07 "Hg10 mi
1:00 pm55 °FClear.No wind28%30.07 "Hg3 mi
12:30 pm55 °FClear.No wind26%30.09 "Hg3 mi
12:00 pm55 °FClear.1 mph38%30.09 "Hg2 mi
11:30 am52 °FClear.1 mph50%30.09 "Hg2 mi
11:00 am46 °FClear.3 mph57%30.09 "Hg2 mi
10:30 am45 °FClear.1 mph57%30.09 "Hg3 mi
10:00 am41 °FClear.3 mph66%30.09 "Hg4 mi
9:30 am39 °FClear.6 mph65%30.09 "Hg4 mi
9:00 am34 °FClear.8 mph81%30.09 "Hg4 mi
8:30 am32 °FClear.3 mph80%30.09 "Hg5 mi
8:00 am32 °FClear.3 mph75%30.09 "Hg4 mi
7:30 am34 °FClear.6 mph75%30.09 "Hg4 mi
7:00 am34 °FClear.6 mph75%30.09 "Hg4 mi
6:30 am32 °FClear.8 mph80%30.09 "Hg5 mi
6:00 am32 °FClear.3 mph80%30.09 "Hg5 mi
5:30 am34 °FClear.8 mph75%30.12 "Hg5 mi
5:00 am34 °FClear.6 mph70%30.09 "Hg5 mi
4:30 am36 °FClear.1 mph70%30.12 "Hg5 mi
4:00 am37 °FClear.6 mph60%30.12 "Hg5 mi
Weather by CustomWeather, © 2017

See weather overviewHow to use our weather pages